[[{"header":{"parameterUnit":"m.s-1","parameterCategory":1,"la1":30.2991,"la2":30.254,"lo1":-89.0895,"lo2":-89.0444,"dy":0.0017,"dx":0.0017,"nx":28,"ny":28,"refTime":"2025-09-19T09:00:00:Z","depth":0,"parameterNumber":2,"parameterNumberName":"U-component_of_WINDS"},"data":[0,0,0,0,0,0,0,0,0,0,0,0,0,0,0,0,0,0,0,0,0,0,0,0,0,0,0,0,0,0,0,0,0,0,0,0,0,0,0,0,0,0,0,0,0,0,0,0,0,0,0,0,0,0,0,0,0,0,1.6683,1.6685,0,1.6816,1.6818,1.6819,1.6821,1.6819,1.6817,1.6816,1.6953,1.6958,1.6963,0,0,0,0,0,0,0,0,0,0,0,0,0,1.6433,1.6437,1.6683,1.6685,1.6687,1.6816,1.6818,1.6819,1.6821,1.6819,1.6817,1.6815,1.6952,1.6958,1.6964,0,0,0,0,0,0,0,0,0,0,0,0,0,1.6551,1.6439,1.6683,1.6703,1.6706,1.6815,1.6818,1.682,1.6821,1.6819,1.6816,1.6814,1.6949,1.6957,1.6965,1.7064,0,0,1.6989,1.6992,0,0,0,0,0,0,0,0,1.6544,1.656,1.6698,1.6702,1.6705,1.6799,1.678,1.6902,1.6822,1.6778,1.6816,1.6813,1.6904,1.6916,1.6946,1.707,1.7076,1.699,1.6994,1.6998,1.7,0,0,0,0,0,0,0,1.6536,1.6555,1.6736,1.67,1.6705,1.6706,1.672,1.6803,1.6853,1.6781,1.6782,1.6797,1.6906,1.6938,1.6949,1.7078,1.6989,1.6996,1.7001,1.7004,1.7291,1.7293,0,0,0,0,0,0,1.6524,1.6548,1.6732,1.674,1.6617,1.6712,1.6728,1.6772,1.6853,1.6862,1.6799,1.6797,1.6926,1.694,1.6954,1.7075,1.6998,1.7005,1.7009,1.7288,1.7291,1.7294,0,0,0,0,0,0,1.6518,1.654,1.6726,1.6644,1.6668,1.6719,1.6768,1.6776,1.6808,1.6866,1.6875,1.6823,1.6925,1.6943,1.7036,1.708,1.7009,1.7016,1.7284,1.7289,1.7293,1.7318,0,0,0,0,0,0,1.6511,1.6538,1.6576,1.6645,1.6672,1.6806,1.6771,1.678,1.6822,1.682,1.6891,1.6901,1.6924,1.7025,1.7044,1.7089,1.7022,1.7281,1.7286,1.7291,1.7313,1.7323,1.733,0,0,0,0,0,1.6502,1.6578,1.6578,1.66,1.672,1.6808,1.6824,1.6849,1.6825,1.6864,1.6901,1.6898,1.7072,1.7034,1.7056,1.7104,1.7278,1.7285,1.7291,1.731,1.7321,1.733,0,0,0,0,0,0,1.6514,1.6588,1.6588,1.6688,1.6742,1.6808,1.6858,1.686,1.6922,1.6918,1.6947,1.6963,1.7056,1.709,1.7046,1.7205,1.7172,1.7183,1.7179,1.719,1.7198,1.7188,1.7028,0,0,0,0,0,1.6528,1.6593,1.6654,1.6737,1.6764,1.6806,1.6845,1.686,1.6917,1.694,1.6984,1.704,1.7107,1.715,1.7215,1.7319,1.7334,1.7363,1.7371,1.7378,1.7387,1.7444,1.7457,1.7316,1.7316,1.7316,0,0,1.6558,1.6606,1.6645,1.674,1.6783,1.685,1.6825,1.6897,1.6947,1.6951,1.7041,1.7076,1.714,1.7239,1.7284,1.727,1.743,1.7386,1.7391,1.7397,1.7452,1.7465,1.7477,1.732,1.7319,1.7319,0,0,1.6646,1.6689,1.6763,1.6807,1.6872,1.69,1.6918,1.6984,1.7007,1.7098,1.7102,1.7163,1.7278,1.7323,1.7362,1.7468,1.7468,1.7488,1.7532,1.7587,1.7598,1.7608,1.7646,1.7659,1.7497,1.7497,1.7497,0,1.6675,1.6775,1.68,1.6872,1.6914,1.692,1.6995,1.7037,1.712,1.7149,1.7132,1.7276,1.732,1.7429,1.7455,1.7486,1.7507,1.748,1.7595,1.7605,1.7615,1.7651,1.7665,1.7499,1.7499,1.7499,1.7499,0,1.6808,1.6877,1.6929,1.7009,1.7057,1.713,1.7166,1.7211,1.7222,1.7252,1.7345,1.7398,1.7473,1.75,1.7512,1.7611,1.76,1.7588,1.7556,1.763,1.7664,1.7678,1.7502,1.7502,1.7501,1.75,0,0,1.6906,1.6999,1.7018,1.7054,1.7127,1.7182,1.7256,1.7329,1.7367,1.7425,1.7487,1.7585,1.7574,1.7617,1.7634,1.7683,1.7763,1.7665,1.7667,1.7681,1.7875,1.7882,1.7898,1.7763,1.7766,1.7768,1.7869,0,1.7002,1.7132,1.7157,1.727,1.7335,1.7342,1.7406,1.7458,1.7488,1.7548,1.7581,1.765,1.7631,1.7657,1.7705,1.7742,1.7802,1.7736,1.7821,1.7824,1.7804,1.7916,1.7925,1.8017,1.7883,1.7885,1.7887,0,1.7131,1.7191,1.7311,1.7375,1.7403,1.7461,1.753,1.7587,1.7646,1.7665,1.7713,1.7724,1.7801,1.7766,1.7872,1.7827,1.7864,1.7887,1.7892,1.79,1.7859,1.7927,1.8048,1.8061,1.7908,1.7907,1.7905,0,1.719,1.7301,1.7387,1.7418,1.7496,1.7536,1.757,1.7627,1.7669,1.773,1.7758,1.7827,1.7865,1.7919,1.7948,1.792,1.8053,1.802,1.807,1.8069,1.8097,1.8095,1.8224,1.8122,1.8122,1.8121,1.8121,0,1.7294,1.7367,1.7415,1.7468,1.7549,1.7578,1.7658,1.7692,1.7742,1.7802,1.7813,1.7869,1.7905,1.7966,1.799,1.8074,1.8092,1.8109,1.8114,1.8107,1.8105,1.8131,1.8125,1.8125,1.8124,1.8124,1.8123,0,1.7373,1.7408,1.7502,1.7568,1.7587,1.7644,1.77,1.7752,1.7782,1.7857,1.7877,1.7924,1.7997,1.8032,1.8122,1.8138,1.8233,1.8235,1.8213,1.8215,1.8262,1.8257,1.8413,1.8435,1.8318,1.832,1.832,0,1.7437,1.7493,1.7564,1.7605,1.764,1.7705,1.7749,1.7779,1.7824,1.7896,1.7939,1.8012,1.8071,1.8187,1.823,1.8299,1.8301,1.8351,1.8312,1.8303,1.8301,1.8297,1.8303,1.8358,1.8359,1.836,1.8361,0,1.7545,1.756,1.7622,1.769,1.7742,1.7797,1.7851,1.7884,1.7923,1.7973,1.8047,1.8093,1.8185,1.8257,1.8329,1.8365,1.837,1.8373,1.8388,1.8381,1.8366,1.8374,1.8231,1.8369,1.8368,1.8368,1.8367,1.8367,1.7618,1.7668,1.7726,1.7795,1.7839,1.789,1.7941,1.7978,1.804,1.8117,1.8131,1.821,1.8268,1.8365,1.8403,1.8465,1.8454,1.8476,1.8481,1.8486,1.8488,1.8357,1.8478,1.8478,1.8478,1.8478,1.8478,0,1.7727,1.7765,1.7828,1.7903,1.7957,1.7957,1.8017,1.8062,1.8131,1.8185,1.8243,1.8328,1.8398,1.8446,1.8518,1.8558,1.8562,1.8575,1.8572,1.858,1.8494,1.8474,1.8571,1.8571,1.8571,1.8571,1.8571,1.8571,1.7789,1.7874,1.7896,1.8002,1.804,1.8116,1.8151,1.8197,1.824,1.8334,1.8393,1.8423,1.8475,1.855,1.8614,1.8627,1.8652,1.8666,1.8678,1.8596,1.8586,1.8577,1.8558,1.8671,1.8671,1.8759,1.8759,1.876]},{"header":{"parameterUnit":"m.s-1","parameterCategory":1,"la1":30.2991,"la2":30.254,"lo1":-89.0895,"lo2":-89.0444,"dy":0.0017,"dx":0.0017,"nx":28,"ny":28,"refTime":"2025-09-19T09:00:00:Z","depth":0,"parameterNumber":3,"parameterNumberName":"V-component_of_WINDS"},"data":[0,0,0,0,0,0,0,0,0,0,0,0,0,0,0,0,0,0,0,0,0,0,0,0,0,0,0,0,0,0,0,0,0,0,0,0,0,0,0,0,0,0,0,0,0,0,0,0,0,0,0,0,0,0,0,0,0,0,2.2537,2.2537,0,2.2613,2.2614,2.2615,2.2653,2.2653,2.2653,2.2653,2.2729,2.2731,2.2733,0,0,0,0,0,0,0,0,0,0,0,0,0,2.2418,2.242,2.2537,2.2537,2.2538,2.2613,2.2614,2.2615,2.2653,2.2653,2.2653,2.2653,2.2728,2.2731,2.2733,0,0,0,0,0,0,0,0,0,0,0,0,0,2.248,2.2421,2.2536,2.2566,2.257,2.2613,2.2614,2.2615,2.2653,2.2653,2.2653,2.2653,2.2728,2.2731,2.2734,2.2752,0,0,2.2743,2.2744,0,0,0,0,0,0,0,0,2.2476,2.2484,2.2561,2.2564,2.2568,2.2623,2.26,2.2661,2.2653,2.2621,2.2653,2.2653,2.2694,2.27,2.2714,2.2756,2.2759,2.2743,2.2745,2.2746,2.2747,0,0,0,0,0,0,0,2.2472,2.2481,2.2567,2.2562,2.2566,2.2574,2.2583,2.2612,2.2656,2.2624,2.2627,2.2635,2.2696,2.2711,2.2716,2.276,2.2743,2.2746,2.2748,2.2749,2.2815,2.2815,0,0,0,0,0,0,2.2463,2.2477,2.2564,2.2569,2.2521,2.2576,2.2586,2.2606,2.2656,2.2664,2.2635,2.2637,2.2706,2.2712,2.2719,2.274,2.2746,2.2749,2.2751,2.2815,2.2815,2.2815,0,0,0,0,0,0,2.2461,2.2471,2.2561,2.2524,2.2536,2.2578,2.26,2.2607,2.2622,2.2665,2.2673,2.2643,2.2706,2.2714,2.2742,2.2744,2.275,2.2753,2.2815,2.2815,2.2815,2.2785,0,0,0,0,0,0,2.2457,2.247,2.2479,2.2524,2.2538,2.2585,2.26,2.2609,2.2628,2.263,2.2674,2.2681,2.2707,2.2738,2.2745,2.2748,2.2756,2.2815,2.2815,2.2815,2.2786,2.2784,2.2782,0,0,0,0,0,2.2453,2.2468,2.2479,2.2489,2.255,2.2585,2.2593,2.2623,2.2628,2.2636,2.2662,2.268,2.2742,2.274,2.2749,2.2753,2.2815,2.2815,2.2815,2.2787,2.2785,2.2783,0,0,0,0,0,0,2.2423,2.2475,2.2487,2.2518,2.2547,2.2592,2.2603,2.262,2.2647,2.2649,2.2683,2.2693,2.2716,2.2738,2.2734,2.277,2.278,2.2782,2.2756,2.2754,2.2752,2.2746,2.2758,0,0,0,0,0,2.242,2.2445,2.2489,2.2511,2.2525,2.2561,2.2578,2.2597,2.2628,2.2641,2.267,2.2698,2.2723,2.274,2.2766,2.2789,2.2797,2.2796,2.2794,2.2792,2.2793,2.2802,2.2801,2.2814,2.2814,2.2814,0,0,2.2414,2.2446,2.246,2.2506,2.2531,2.2554,2.2572,2.2597,2.2613,2.2645,2.2672,2.2693,2.2727,2.2751,2.2764,2.277,2.279,2.2792,2.279,2.2792,2.2802,2.28,2.2799,2.2814,2.2814,2.2814,0,0,2.2415,2.2443,2.2463,2.2486,2.2522,2.2545,2.255,2.2591,2.2606,2.2634,2.2656,2.2676,2.2721,2.2742,2.2759,2.2762,2.2778,2.2769,2.2759,2.2768,2.2766,2.2766,2.2764,2.2763,2.277,2.277,2.277,0,2.2404,2.2441,2.2471,2.2493,2.2511,2.2539,2.2557,2.2578,2.2621,2.2632,2.2638,2.2691,2.2716,2.2744,2.2744,2.2758,2.2761,2.2765,2.2764,2.2764,2.2763,2.2762,2.2761,2.2769,2.2769,2.2769,2.2769,0,2.2423,2.2447,2.2459,2.2498,2.2517,2.2538,2.2568,2.2584,2.26,2.2622,2.2647,2.2677,2.2708,2.2716,2.2734,2.2745,2.2747,2.2758,2.2768,2.276,2.2759,2.2759,2.2767,2.2767,2.2768,2.2768,0,0,2.2411,2.2462,2.2466,2.2482,2.2521,2.254,2.2559,2.2589,2.26,2.2627,2.2642,2.2677,2.2686,2.2705,2.2724,2.2732,2.2728,2.2742,2.2743,2.2736,2.2738,2.2728,2.2727,2.2738,2.2738,2.2738,2.2734,0,2.2416,2.2453,2.2478,2.2504,2.2525,2.2549,2.2565,2.259,2.2609,2.2628,2.2649,2.2672,2.2684,2.2695,2.2704,2.2726,2.2728,2.2727,2.2751,2.2751,2.274,2.2727,2.2718,2.2713,2.2734,2.2734,2.2734,0,2.2428,2.2452,2.248,2.2512,2.2522,2.2536,2.2562,2.2581,2.2608,2.2621,2.2639,2.2658,2.2677,2.2685,2.2709,2.2707,2.2718,2.273,2.273,2.2733,2.2742,2.2727,2.2712,2.271,2.2734,2.2734,2.2734,0,2.2413,2.2452,2.2473,2.2486,2.2525,2.2534,2.255,2.2577,2.2591,2.2614,2.2623,2.2647,2.266,2.2677,2.2701,2.2705,2.2721,2.2732,2.2731,2.273,2.2733,2.2733,2.2717,2.2742,2.2742,2.2742,2.2742,0,2.2415,2.2431,2.2466,2.2479,2.2495,2.2522,2.2537,2.2556,2.2578,2.2593,2.2615,2.2628,2.2659,2.2675,2.2693,2.2708,2.2715,2.2724,2.2729,2.2722,2.272,2.2729,2.2729,2.2742,2.2742,2.2742,2.2742,0,2.2402,2.2427,2.245,2.2483,2.2491,2.2502,2.253,2.2541,2.256,2.2578,2.2584,2.2613,2.2633,2.2657,2.2686,2.2698,2.271,2.2718,2.2701,2.2703,2.2699,2.2698,2.2688,2.2687,2.2713,2.2713,2.2713,0,2.2401,2.2413,2.2446,2.2457,2.2472,2.2491,2.2504,2.253,2.2543,2.257,2.2578,2.2599,2.2617,2.2646,2.2669,2.2689,2.2697,2.2692,2.27,2.2691,2.2694,2.2692,2.2692,2.269,2.2689,2.2689,2.2689,0,2.2397,2.2407,2.2426,2.2447,2.2462,2.2481,2.2501,2.2508,2.2537,2.255,2.2569,2.2583,2.2609,2.2629,2.2651,2.2666,2.2681,2.2685,2.2686,2.2678,2.2667,2.267,2.2693,2.2686,2.2686,2.2686,2.2686,2.2686,2.2389,2.2398,2.2422,2.244,2.2457,2.2473,2.2484,2.2503,2.252,2.2543,2.2556,2.2574,2.2596,2.2627,2.2641,2.2654,2.266,2.2661,2.2661,2.266,2.2657,2.2665,2.2658,2.2658,2.2658,2.2659,2.2659,0,2.2383,2.2398,2.2415,2.244,2.2453,2.2465,2.2485,2.2496,2.2511,2.253,2.2546,2.2566,2.2583,2.2606,2.2624,2.263,2.2637,2.2634,2.2633,2.2636,2.2652,2.2649,2.2628,2.2628,2.2628,2.2628,2.2628,2.2628,2.2382,2.2397,2.2409,2.2432,2.2447,2.2464,2.2474,2.2488,2.2502,2.2523,2.2537,2.2551,2.2571,2.259,2.2605,2.2611,2.2616,2.261,2.2618,2.2633,2.2635,2.2638,2.2635,2.2612,2.2612,2.2601,2.2601,2.2601]}]]